Pascagoula, MS

9:58 PM CDT on April 27, 2017 (GMT -0500)
Lott International

Weather History for KPQL - April, 2013

Change the Weather History Date:

Friday, April 19, 2013

  Actual Average Record
Temperature  
Mean Temperature 60 °F -  
Max Temperature 75 °F 77 °F 85 °F (1981)
Min Temperature 44 °F 59 °F 37 °F (2001)
Degree Days  
Heating Degree Days 6    
Growing Degree Days 10 (Base 50)    
Moisture  
Dew Point 51 °F    
Average Humidity 90    
Maximum Humidity 100    
Minimum Humidity 80    
Precipitation  
Precipitation 0.88 in - - ()
Sea Level Pressure  
Sea Level Pressure 30.03 in    
Wind  
Wind Speed 10 mph (NNW)    
Max Wind Speed 17 mph    
Max Gust Speed 26 mph    
Visibility 6 miles    
Events Fog , Rain , Thunderstorm    
Averages and records for this station are not official NWS values.
T = Trace of Precipitation, MM = Missing Value Source: NWS Daily Summary

Daily Weather History Graph

Daily Weather History Graph

Search for Another Location

Airport or City:

Trip Planner

Search our weather history database for the weather conditions in past years. The results will help you decide how hot, cold, wet, or windy it might be!

Date:

Astronomy

Apr. 19, 2013 Rise Set
Actual Time 6:22 AM CDT 7:24 PM CDT
Civil Twilight 5:57 AM CDT 7:49 PM CDT
Nautical Twilight 5:27 AM CDT 8:18 PM CDT
Astronomical Twilight 4:57 AM CDT 8:49 PM CDT
Moon 1:33 PM CDT (4/19) 2:11 AM CDT (4/19)
Length of Visible Light 13h 52m
Length of Day
13h 02m
First Quarter, 62% of the Moon is Illuminated
Apr 19
First Quarter
Apr 25
Full
May 2
Last Quarter
May 9
New
May 17
First Quarter

Hourly Weather History & Observations

Time (CDT) Temp. Dew Point Humidity Pressure Visibility Wind Dir Wind Speed Gust Speed Precip Events Conditions
12:53 AM 75.0 °F 72.0 °F 90% 29.86 in 8.0 mi South 13.8 mph - N/A   Overcast
1:53 AM 75.0 °F 72.0 °F 90% 29.83 in 8.0 mi South 12.7 mph 18.4 mph N/A   Overcast
2:53 AM 75.0 °F 72.0 °F 90% 29.83 in 8.0 mi SSW 11.5 mph 23.0 mph N/A   Overcast
3:53 AM 75.0 °F 72.0 °F 90% 29.83 in 8.0 mi SSW 8.1 mph 16.1 mph N/A   Overcast
4:53 AM 64.0 °F 62.1 °F 93% 29.86 in 6.0 mi NW 10.4 mph 20.7 mph 0.04 in Rain Light Rain
5:15 AM 62.6 °F 59.0 °F 88% 29.85 in 10.0 mi NNW 8.1 mph 19.6 mph 0.01 in Rain , Thunderstorm Light Rain
5:41 AM 62.6 °F 59.0 °F 88% 29.87 in 5.0 mi NNW 6.9 mph - 0.07 in Rain Heavy Rain
5:53 AM 61.0 °F 59.0 °F 93% 29.87 in 5.0 mi North 12.7 mph 19.6 mph 0.13 in Rain Heavy Rain
6:05 AM 59.0 °F 57.2 °F 94% 29.87 in 6.0 mi North 17.3 mph 24.2 mph 0.03 in Rain , Thunderstorm Rain
6:16 AM 57.2 °F 53.6 °F 88% 29.89 in 5.0 mi North 17.3 mph 26.5 mph 0.06 in Rain Rain
6:35 AM 55.4 °F 53.6 °F 94% 29.90 in 10.0 mi North 16.1 mph 26.5 mph 0.06 in Rain Light Rain
6:53 AM 57.0 °F 53.1 °F 87% 29.94 in 10.0 mi NNW 12.7 mph 19.6 mph 0.06 in Rain Light Rain
7:47 AM 55.4 °F 53.6 °F 94% 30.00 in 4.0 mi NNW 8.1 mph - 0.09 in Rain Heavy Rain
7:53 AM 55.0 °F 53.1 °F 93% 30.01 in 5.0 mi NNW 12.7 mph 19.6 mph 0.11 in Rain , Thunderstorm Heavy Thunderstorms and Rain
8:16 AM 53.6 °F 51.8 °F 94% 30.03 in 2.5 mi NW 8.1 mph 18.4 mph 0.14 in Rain Heavy Rain
8:24 AM 53.6 °F 51.8 °F 94% 30.03 in 3.0 mi NW 11.5 mph 19.6 mph 0.20 in Rain Heavy Rain
8:29 AM 53.6 °F 51.8 °F 94% 30.03 in 2.5 mi NNW 9.2 mph 18.4 mph 0.25 in Rain Heavy Rain
8:36 AM 53.6 °F 51.8 °F 94% 30.06 in 3.0 mi WNW 8.1 mph 16.1 mph 0.28 in Rain Heavy Rain
8:44 AM 53.6 °F 51.8 °F 94% 30.06 in 3.0 mi NW 8.1 mph 18.4 mph 0.33 in Rain Heavy Rain
8:51 AM 53.6 °F 50.0 °F 88% 30.06 in 2.0 mi NW 8.1 mph - 0.38 in Rain Heavy Rain
8:53 AM 53.1 °F 50.0 °F 89% 30.06 in 1.8 mi NW 9.2 mph - 0.39 in Rain Heavy Rain
9:06 AM 53.6 °F 51.8 °F 94% 30.03 in 2.5 mi NNW 11.5 mph 17.3 mph 0.07 in Rain Heavy Rain
9:14 AM 51.8 °F 50.0 °F 94% 30.03 in 5.0 mi NNW 11.5 mph - 0.08 in Rain Rain
9:45 AM 53.6 °F 50.0 °F 88% 30.05 in 10.0 mi NW 8.1 mph 17.3 mph 0.11 in Rain Light Rain
9:53 AM 52.0 °F 50.0 °F 93% 30.06 in 10.0 mi NW 12.7 mph 18.4 mph 0.11 in   Overcast
10:13 AM 51.8 °F 48.2 °F 88% 30.06 in 10.0 mi NNW 12.7 mph 20.7 mph N/A   Overcast
10:53 AM 52.0 °F 48.0 °F 86% 30.03 in 10.0 mi NNW 17.3 mph 21.9 mph 0.00 in   Mostly Cloudy
11:53 AM 53.1 °F 48.0 °F 83% 30.05 in 10.0 mi North 16.1 mph 20.7 mph 0.00 in   Overcast
12:43 PM 51.8 °F 46.4 °F 82% 30.07 in 10.0 mi NNW 9.2 mph 18.4 mph N/A   Mostly Cloudy
12:53 PM 52.0 °F 46.0 °F 80% 30.07 in 10.0 mi NNW 8.1 mph - N/A   Mostly Cloudy
1:06 PM 51.8 °F 46.4 °F 82% 30.06 in 10.0 mi North 8.1 mph - N/A   Overcast
1:34 PM 51.8 °F 46.4 °F 82% 30.07 in 10.0 mi North 10.4 mph 16.1 mph 0.00 in Rain Light Rain
1:53 PM 51.1 °F 48.0 °F 89% 30.02 in 10.0 mi North 12.7 mph 20.7 mph 0.01 in Rain Light Rain
2:53 PM 50.0 °F 46.0 °F 86% 30.06 in 10.0 mi North 8.1 mph - 0.01 in Rain Light Rain
3:30 PM 50.0 °F 46.4 °F 87% 30.03 in 10.0 mi North 11.5 mph - 0.01 in Rain Light Rain
3:38 PM 50.0 °F 46.4 °F 87% 30.04 in 10.0 mi NNW 9.2 mph 17.3 mph 0.01 in Rain Light Rain
3:53 PM 50.0 °F 46.9 °F 89% 30.06 in 10.0 mi Variable 3.5 mph - 0.01 in Rain Light Rain
4:53 PM 51.1 °F 46.9 °F 86% 30.04 in 10.0 mi North 5.8 mph - 0.01 in Rain Light Rain
5:53 PM 52.0 °F 46.9 °F 83% 30.09 in 10.0 mi WSW 3.5 mph - 0.00 in   Scattered Clouds
6:53 PM 52.0 °F 48.0 °F 86% 30.09 in 10.0 mi NW 3.5 mph - N/A   Clear
7:53 PM 51.1 °F 45.0 °F 80% 30.11 in 10.0 mi NNW 3.5 mph - N/A   Clear
8:53 PM 48.9 °F 46.9 °F 93% 30.14 in 7.0 mi Calm Calm - N/A   Clear
9:09 PM 48.2 °F 46.4 °F 93% 30.14 in 2.5 mi Calm Calm - N/A   Partly Cloudy
9:17 PM 48.2 °F 46.4 °F 93% 30.13 in 1.8 mi Calm Calm - N/A   Partly Cloudy
9:20 PM 48.2 °F 46.4 °F 93% 30.13 in 3.0 mi Calm Calm - N/A   Partly Cloudy
9:53 PM 46.9 °F 45.0 °F 93% 30.16 in 7.0 mi Calm Calm - N/A   Clear
10:27 PM 46.4 °F 44.6 °F 93% 30.16 in 1.8 mi Calm Calm - N/A   Partly Cloudy
10:38 PM 46.4 °F 44.6 °F 93% 30.17 in 0.8 mi Calm Calm - N/A   Mist
10:53 PM 46.0 °F 45.0 °F 96% 30.18 in 0.5 mi Calm Calm - N/A Fog Fog
11:02 PM 44.6 °F 44.6 °F 100% 30.18 in 0.2 mi Calm Calm - N/A Fog Fog
11:33 PM 44.6 °F 44.6 °F 100% 30.18 in 0.5 mi Calm Calm - N/A Fog Fog
11:53 PM 45.0 °F 43.0 °F 93% 30.19 in 0.5 mi Calm Calm - N/A Fog Fog